Location: Eferding
(48.3167°N, 14.0167°E)
Time: 04:40:05
(UTC+00:00)

CZ-4 R/B - Pass Details

Date: 12 November 2019
Orbit: 530 x 601 km, 97.7° (Epoch: 13 December)

Event Time Altitude Azimuth Distance (km) Brightness Sun altitude
Rises 16:52:53 0° 153° (SSE) 2,829 4.8 -13.9°
Reaches altitude 10° 16:55:04 10° 149° (SSE) 1,925 3.9 -14.3°
Maximum altitude 16:59:10 55° 72° (ENE) 713 1.5 -15.0°
Drops below altitude 10° 17:03:13 10° 355° (N) 1,907 4.0 -15.6°
Sets 17:05:23 0° 351° (N) 2,800 4.9 -16.0°
